Tracking 30109 objects as of 12-Dec-2024
HD Live streaming from Space Station
objects crossing your sky now

STARLINK-6315

Track STARLINK-6315 now!
10-day predictions
STARLINK-6315 is classified as:


NORAD ID: 57236
Int'l Code: 2023-094U
Perigee: 565.3 km
Apogee: 567.1 km
Inclination: 43.0 °
Period: 95.8 minutes
Semi major axis: 6937 km
RCS: Unknown
Launch date: July 7, 2023
Source: United States (US)
Launch site: AIR FORCE WESTERN TEST RANGE (AFWTR)
Your satellite tracking list
Your tracking list is empty




NASA's NSSDC Master Catalog

Two Line Element Set (TLE):
1 57236U 23094U   24346.64335833 -.00000468  00000-0 -19561-4 0  9991
2 57236  43.0046 319.6070 0001311 263.2109  96.8584 15.02533778 79295
Source of the keplerian elements: AFSPC